O/OREOS (USA 219)

Last updated on Sun Aug 31 2025 00:03:10 GMT+0000 (Coordinated Universal Time)

1 37224U 10062C 25242.11546452 .00004059 00000+0 40690-3 0 9999 2 37224 71.9733 18.7895 0016798 262.3228 97.6034 14.91815023 73209
UTC large
Height (km)
Speed (km/s)
/
Latitude / Longitude
Inclination (degrees)
Orbital Period (minutes)
Azimuth
Elevation
Range (km)
Doppler Factor

Next 0 passes for location: London (51.5072 / 0.1276)

Sorry there are no passes over London.